Regional Weather Roundup
Issued by NWS

Home | Current Version | Previous Version | Graphics & Text | Print | Product List | Glossary On
Versions: 1 2 3 4 5 6 7 8 9 10 11 12 13 14 15 16 17 18 19 20 21 22 23 24 25 26 27 28 29 30 31 32 33 34 35 36 37 38 39 40 41 42 43 44 45 46 47 48 49 50
000
ASUS43 KDMX 270708
RWRIA

WEATHER ROUNDUP FOR IOWA
NATIONAL WEATHER SERVICE DES MOINES IA
200 AM CDT FRI MAY 27 2016

NOTE: "FAIR" INDICATES FEW OR NO CLOUDS BELOW 12,000 FEET WITH NO
SIGNIFICANT WEATHER AND/OR OBSTRUCTIONS TO VISIBILITY.

* - THESE STATIONS ARE NOT NWS STATIONS...THUS NOT UNDER NWS
QUALITY CONTROL.  THEY ALSO DO NOT REPORT WEATHER SUCH
AS PRECIPITATION OR FOG.

IAZ001>003-012>014-020>022-031>034-043>046-270800-
   NORTHWEST IOWA

CITY           SKY/WX    TMP DP  RH WIND       PRES   REMARKS
CARROLL *      MOCLDY    63  59  88 S20G35    29.74F
CHEROKEE *     CLOUDY    59  57  94 N3        29.82S
LE MARS *      CLEAR     61  57  88 N3        29.83S
ORANGE CITY *  CLEAR     61  55  82 CALM      29.83S
SHELDON *      CLEAR     59  59 100 NE5       29.81F
SIOUX CITY     CLOUDY    62  55  77 CALM      29.80F
SPENCER        CLOUDY    59  56  89 NE6       29.82F
STORM LAKE *   CLEAR     59  55  88 N5        29.83S
$$

IAZ055>058-069>071-079>083-090>094-270800-
   SOUTHWEST IOWA

CITY           SKY/WX    TMP DP  RH WIND       PRES   REMARKS
ATLANTIC *     CLEAR     64  57  77 S14       29.77S
AUDUBON *        N/A     63  57  82 S8        29.77F
CLARINDA *       N/A     63  61  94 MISG      29.78S
COUNCIL BLFS * CLEAR     63  59  88 S7        29.81R
CRESTON *      CLOUDY    63  59  88 S20       29.78F
HARLAN  *      MOCLDY    63  59  88 S7        29.82R
LAMONI         LGT RAIN  61  60  97 S7        29.83F
RED OAK *      CLOUDY    64  59  82 SW12      29.79R
SHENANDOAH *   CLOUDY    63  61  94 SW12      29.81R
$$

IAZ047>049-059>061-072>074-084-270800-
   CENTRAL IOWA

CITY           SKY/WX    TMP DP  RH WIND       PRES   REMARKS
AMES           CLOUDY    65  57  75 SW13      29.77S
ANKENY *       CLEAR     64  59  82 SW10      29.77S
BOONE *        CLEAR     64  57  77 S15G23    29.75F
CHARITON *     CLOUDY    64  61  88 S10       29.79F
DES MOINES     CLOUDY    64  59  83 SW9       29.78F
GRINNELL*      RAIN      63  59  88 SE7       29.84F
KNOXVILLE *    CLOUDY    63  61  94 SE12      29.79F
MARSHALLTOWN   CLOUDY    65  57  75 SE9       29.81R
NEWTON *       CLOUDY    63  63 100 SE14      29.80F
PELLA *        LGT RAIN  63  61  94 SE6       29.83F
PERRY *          N/A     64  59  82 S23G31    29.72F
$$

IAZ004>006-015-016-023>025-035-036-270800-
   NORTH CENTRAL IOWA

CITY           SKY/WX    TMP DP  RH WIND       PRES   REMARKS
ALGONA *       CLEAR     63  57  82 E7        29.82F
CLARION *      CLEAR     64  57  77 W5        29.82R
ESTHERVILLE    CLOUDY    60  58  92 CALM      29.83F
FORT DODGE *   CLOUDY    64  54  68 S6        29.83S
MASON CITY     CLOUDY    62  58  86 E5        29.86S
FOREST CITY *  CLEAR     61  55  82 CALM      29.85S
WEBSTER CITY * CLEAR     64  57  77 W5        29.79R
IOWA FALLS *     N/A     64  59  82 E8        29.82R
$$

IAZ007>011-017>019-026>030-037>042-050>054-066-270800-
   NORTHEAST IOWA

CITY           SKY/WX    TMP DP  RH WIND       PRES   REMARKS
CEDAR RAPIDS   LGT RAIN  63  61  93 CALM      29.85R
CHARLES CITY * MOCLDY    64  61  88 N9        29.84F
CLINTON *      CLOUDY    69  64  84 NW3       29.84F
DECORAH *      MOCLDY    64  61  88 CALM      29.87S
DUBUQUE        CLOUDY    67  60  78 N7        29.86R
MONTICELLO *   CLEAR     68  61  77 CALM      29.85F
OELWEIN *      CLOUDY    64  61  88 NW9       29.83F
WATERLOO       CLOUDY    65  58  78 CALM      29.85S
$$

IAZ064-065-067-068-078-270800-
   EAST CENTRAL IOWA

CITY           SKY/WX    TMP DP  RH WIND       PRES   REMARKS
DAVENPORT      CLOUDY    69  62  78 SW7       29.87R
IOWA CITY      CLOUDY    66  60  81 S10       29.90R
MT. PLEASANT * LGT RAIN  66  64  94 E7        29.86F
MUSCATINE *    CLOUDY    66  59  77 SW8       29.89F
QUAD CITIES    CLOUDY    71  59  65 SW6       29.85S
$$

IAZ062-063-075>077-085>089-095>099-270800-
   SOUTHEAST IOWA

CITY           SKY/WX    TMP DP  RH WIND       PRES   REMARKS
BURLINGTON     RAIN      63  62  97 E6        29.90S FOG
FAIRFIELD *      N/A    N/A N/A N/A MISG        N/A
FORT MADISON * LGT RAIN  63  63 100 SE3       29.90S
KEOKUK *       CLOUDY    63  63 100 NE5       29.86F
OSKALOOSA *    MOCLDY    63  61  94 S5        29.85F
OTTUMWA        CLOUDY    63  60  90 SW5       29.85F
WASHINGTON *   CLOUDY    63  63 100 CALM      29.89R
$$

ABBREVIATIONS USED IN REMARKS
   TC - TEMPERATURES IN CELSIUS
  WCI - WIND CHILL INDEX
   HX - HEAT INDEX
  VSB - VISIBILITY
$$





USA.gov is the U.S. government's official web portal to all federal, state and local government web resources and services.